Flag for Mexico Weather past 2 weeks in Ixtlán del Río, Nayarit, Mexico

73 °F

Light rain. Mostly cloudy.

Feels Like: 68 °F
Forecast: 61 / 85 °F
Wind: No wind

Location: Puerto Vallarta / Lic

Current Time: Nov 27, 2015 at 11:36:52 PM

Latest Report: Nov 27, 2015 at 10:48 PM

Visibility: 6 mi

Pressure: 29.88 "Hg (26.47 "Hg at 1049m altitude)

Humidity: 100%

Dew point: 73 °F

Location of Ixtlán del RíoLocation

Historic Weather in Ixtlán del Río — Graph


Ixtlán del Río temperature yesterday

Maximum temperature yesterday: 79 °F (at 8:52 AM)
Minimum temperature yesterday: 75 °F (at 8:06 PM)
Average temperature yesterday: 77 °F

Past Weeks' High & Low Weather Summary

High91 °F (Nov 25, 11:53 AM)100% (Nov 23, 4:49 AM)30.13 "Hg (Nov 23, 4:49 AM)
Low68 °F (Nov 19, 6:48 AM)41% (Nov 20, 1:52 PM)29.70 "Hg (Nov 18, 1:50 PM)
Average79 °F83%29.82 "Hg
* Reported Nov 12 8:52 PM — Nov 27 8:47 PM, Ixtlán del Río, Weather by CustomWeather, © 2015

Note: Actual official high and low records may vary slightly from our data, if they occured in-between our weather recording intervals... More about our weather records


Ixtlán del Río weather history for previous 24 hours

Time TempWeatherWind HumidityBarometerVisibility
8:47 PM
Fri, Nov 27
73 °FLight rain. Mostly cloudy.6 mph100%29.86 "Hg6 mi
7:47 PM73 °FLight rain. Overcast.5 mph100%29.86 "Hg6 mi
6:49 PM73 °FOvercast.2 mph100%29.86 "Hg5 mi
5:49 PM73 °FRain. Overcast.No wind100%29.86 "Hg5 mi
4:55 PM75 °FRain. Overcast.3 mph94%29.86 "Hg5 mi
3:51 PM75 °FRain. Overcast.5 mph94%29.83 "Hg4 mi
2:48 PM75 °FLight rain. Cloudy.No wind94%29.86 "Hg6 mi
1:49 PM75 °FLight rain. Cloudy.No wind94%29.86 "Hg7 mi
12:47 PM75 °FLight rain. More clouds than sun.No wind94%29.87 "Hg7 mi
11:48 AM75 °FLight rain. Overcast.3 mph94%29.88 "Hg7 mi
10:47 AM75 °FOvercast.No wind89%29.92 "Hg8 mi
9:50 AM75 °FLight rain. Overcast.5 mph94%29.93 "Hg7 mi
8:50 AM73 °FLight rain. Mostly cloudy.3 mph94%29.95 "Hg7 mi
7:47 AM73 °FLight rain. Mostly cloudy.No wind94%29.92 "Hg7 mi
6:53 AM72 °FLight rain. Overcast.No wind100%29.92 "Hg7 mi
5:52 AM73 °FLight rain. Overcast.5 mph94%29.90 "Hg7 mi
4:47 AM73 °FLight rain. Overcast.3 mph100%29.85 "Hg7 mi
3:47 AM73 °FLight rain. Low clouds.6 mph100%29.88 "Hg7 mi
2:45 AM73 °FRain. Overcast.8 mph100%29.85 "Hg6 mi
1:52 AM73 °FRain. Overcast.8 mph100%29.86 "Hg6 mi
12:46 AM75 °FRain. Low clouds.2 mph94%29.90 "Hg6 mi
11:45 PM
Thu, Nov 26
75 °FRain. Low clouds.2 mph94%29.91 "Hg6 mi
Weather by CustomWeather, © 2015

See weather overviewHow to use our weather pages